Location: Newark
(47.5347°N, 5.5339°E)
Time: 13:43:53
(UTC+00:00)

ISS - Pass Details

Date: 24 September 2019
Orbit: 411 x 421 km, 51.6° (Epoch: 22 October)

Event Time Altitude Azimuth Distance (km) Brightness Sun altitude
Rises 19:17:36 0° 262° (W) 2,341 1.1 -18.3°
Reaches altitude 10° 19:19:43 10° 268° (W) 1,480 0.0 -18.6°
Maximum altitude 19:22:58 51° 345° (NNW) 529 -3.1 -19.1°
Enters shadow 19:23:44 40° 31° (NNE) 620 -3.0 -19.2°
